7 * 24
多渠道服务支持
STARLINK-11344 是 SpaceX Starlink 卫星互联网项目中的一颗低轨卫星,属于第二代 Starlink 卫星星座的一部分。该卫星于2023年发射,旨在为全球用户提供高速、低延迟的互联网服务。它运行在约550公里高的近地轨道,配备先进通信设备,支持宽带数据传输。作为 Starlink 计划的重要组成部分,该卫星有助于扩大覆盖范围、提升网络性能,并推动偏远地区互联网接入。其部署体现了 SpaceX 在构建全球卫星互联网基础设施方面的持续努力。
美国
(US)
| 数据来源 | 国际轨道数据 |
| 星历时间: | 2025-12-14T23:40:33+0800 1天前 查看轨道信息 |
| 半长轴: | 6737.888km |
| 偏心率: | 0.0001295 |
| 轨道倾角: | 53.159° |
| 近地点辐角 | 92.838° |
| 升交点赤经 | 85.760° |
| 平近点角 | 267.279° |
| 近地点: | 358.88km |
| 远地点: | 360.626km |
| 周期: | 91.737分钟 |
| 每日圈数: | 15.697018 |